Regional Weather Roundup
Issued by NWS State College, PA

Home | Current Version | Previous Version | Text Only | Print | Product List | Glossary On
Versions: 1 2 3 4 5 6 7 8 9 10 11 12 13 14 15 16 17 18 19 20 21 22 23 24 25 26 27 28 29 30 31 32 33 34 35 36 37 38 39 40 41 42 43 44 45 46 47 48 49 50
000
ASUS41 KCTP 250003
RWRCTP

REGIONAL WEATHER ROUNDUP
NATIONAL WEATHER SERVICE STATE COLLEGE PA
700 PM EST FRI FEB 24 2017

Note: "fair" indicates few or no clouds below 12,000 feet with no
significant weather and/or obstructions to visibility.

* = STATION THAT DOES NOT REPORT PRECIPITATION /E.G. RAIN...SNOW...ETC/
    THUNDER OR FOG.

PAZ002>004-007>009-013>016-020>023-029>032-250100-
WESTERN PENNSYLVANIA

CITY           SKY/WX    TMP DP  RH WIND       PRES   REMARKS
ERIE           CLOUDY    55  45  68 N6        29.61R
MEADVILLE      CLEAR     67  47  48 CALM      29.63S
FRANKLIN*      CLEAR     64  46  52 S6        29.66R
NEW CASTLE     FAIR      65  48  54 CALM      29.63R
BEAVER COUNTY  CLEAR     70  46  43 CALM      29.63R
BUTLER*        CLEAR     70  46  43 CALM      29.64S
PITTSBURGH INT MOCLDY    72  47  40 S3        29.62R
PITTSBURGH     CLEAR     71  44  37 S7        29.62F
INDIANA*       CLEAR     70  46  43 SE5       29.68S
LATROBE        CLEAR     72  46  40 S7        29.65F
WASHINGTON CO* CLEAR     64  45  48 CALM      29.64S
$$

PAZ004>006-010>012-017>019-024>028-033>037-041-042-045-046-049>053-250100-
CENTRAL PENNSYLVANIA

CITY           SKY/WX    TMP DP  RH WIND       PRES   REMARKS
BRADFORD       PTCLDY    61  48  62 S3        29.69R
DUBOIS         CLOUDY    68  45  43 SE3       29.67R
CLEARFIELD       N/A    N/A N/A N/A MISG      29.70R
JOHNSTOWN      CLOUDY    65  46  50 S17G25    29.70F
ALTOONA        CLEAR     67  51  56 S14       29.73S
STATE COLLEGE  CLEAR     68  48  49 S12       29.73R
WILLIAMSPORT   CLEAR     70  51  51 SE17      29.72S
SELINSGROVE    CLEAR     67  53  61 S15G21    29.76R
FT INDIANTOWN  NOT AVBL
CAPITAL CITY   CLEAR     69  52  54 SE12      29.78R
HARRISBURG     PTCLDY    63  53  70 SE13      29.78R
YORK           CLEAR     65  54  67 SE8       29.79R
$$

PAZ038>040-043-044-047-048-054-055-060>062-067>071-250100-
EASTERN PENNSYLVANIA

CITY           SKY/WX    TMP DP  RH WIND       PRES   REMARKS
SCRANTON       CLEAR     67  50  54 S8        29.79R
MOUNT POCONO   CLOUDY    61  51  70 S9        29.84R
ALLENTOWN      CLEAR     67  51  56 S7        29.82R
QUAKERTOWN*    CLEAR     66  54  63 S6        29.84R
READING        CLEAR     66  52  60 S8        29.80S
LANCASTER      CLEAR     66  54  65 S9        29.80S
COATESVILLE    CLEAR     63  54  72 SE7       29.85R
POTTSTOWN      CLEAR     65  54  67 S7        29.84R
BLUE BELL      CLEAR     63  54  72 S8        29.83S
DOYLESTOWN     CLEAR     66  55  67 S9G16     29.83S
WILLOW GROVE   NOT AVBL
NORTH PHILA    CLEAR     68  55  63 S6        29.85F
PHILADELPHIA   PTCLDY    64  55  72 SE8       29.85S
$$



USA.gov is the U.S. government's official web portal to all federal, state and local government web resources and services.